Location: *
(50.5492°N, 7.7469°E)
Time: 23:48:26
(UTC+00:00)

Cosmos 2233 Rocket - Pass Details

Date: 21 October 2019
Orbit: 954 x 990 km, 82.9° (Epoch: 20 November)

Event Time Altitude Azimuth Distance (km) Brightness Sun altitude
Rises 19:24:34 0° 350° (N) 3,696 7.4 -28.8°
Reaches altitude 10° 19:27:05 10° 351° (N) 2,748 6.7 -29.2°
Enters shadow 19:32:55 76° 15° (NNE) 1,020 4.0 -30.1°
